Theta_e
317 319 318 317 315 315 316 316 317 316 315 315 312 315 315 317 318 317 320 323 324 324 322 317 323 326 327 324 319 318 317 316 315 317 317 315 316 314 314 316 317 314 312 312
314 316 317 317 316 316 316 316 316 315 315 314 312 317 316 316 318 317 318 321 323 324 325 325 326 326 324 320 318 318 317 317 318 318 318 319 319 319 318 318 318 316 314 312
316 317 317 317 315 315 315 316 316 316 315 314 312 313 316 316 317 317 317 320 322 322 324 325 325 324 321 322 321 321 320 319 319 319 320 320 318 317 318 319 318 317 317 316
317 316 316 316 317 315 316 315 316 316 314 315 312 313 313 316 314 316 318 317 319 320 321 322 323 323 323 323 324 323 322 321 320 320 320 320 319 318 316 316 316 316 317 317
319 316 316 315 318 316 316 315 314 315 313 312 313 313 312 314 315 314 318 318 317 317 318 319 320 321 322 322 322 323 323 323 322 322 322 321 320 318 317 316 315 318 318 316
316 317 315 316 316 314 313 313 308 308 309 312 315 313 311 314 316 316 317 318 318 317 316 316 316 316 317 318 320 320 321 322 321 320 319 316 316 317 316 316 316 318 318 315
317 318 317 316 315 312 310 309 310 312 310 310 311 313 312 314 315 316 317 317 317 317 316 315 314 314 314 314 313 313 314 315 315 315 315 315 316 316 316 316 316 318 318 315
318 319 315 315 316 315 312 311 311 316 313 313 311 314 316 313 313 314 315 314 314 314 315 314 314 312 312 312 312 312 311 310 309 308 308 309 312 313 314 315 317 317 319 316
317 318 314 314 313 312 313 312 310 311 310 312 311 315 314 313 311 312 313 313 312 312 312 312 310 310 311 310 310 311 311 309 308 307 305 305 306 309 312 314 316 319 319 316
315 315 314 316 313 313 312 312 311 308 315 316 314 315 314 314 312 310 311 311 311 311 311 310 310 309 309 309 309 309 309 308 308 307 305 306 308 310 312 314 316 317 316 315
312 311 311 311 313 314 313 313 309 309 310 313 315 313 310 313 311 311 311 311 311 310 311 310 310 309 309 309 309 309 309 309 308 307 305 306 307 306 307 309 310 310 310 310
312 309 311 313 312 311 313 315 310 309 312 310 311 314 312 310 312 312 311 311 310 310 310 309 309 308 307 307 308 308 308 309 307 306 305 306 306 305 306 308 308 308 307 307
311 307 305 307 309 310 316 315 311 308 306 311 308 312 310 311 311 311 311 310 310 310 310 308 308 309 307 308 308 308 307 306 305 304 303 303 304 306 307 307 306 306 306 306
311 306 306 308 309 310 315 315 314 310 303 311 311 313 312 310 309 310 309 310 310 310 309 309 309 308 308 308 307 305 304 303 303 302 302 301 302 303 304 305 306 306 306 305
309 311 309 310 311 313 315 315 314 312 311 312 312 312 312 309 309 310 310 310 310 309 309 308 308 307 306 306 304 303 302 301 302 301 301 302 302 302 302 303 303 302 302 302
307 309 312 315 314 315 316 315 314 314 314 313 313 312 310 311 310 309 309 310 310 309 308 308 307 305 304 302 302 301 301 302 302 301 302 302 301 302 303 303 302 302 302 302
308 309 311 315 314 313 312 312 314 314 313 313 312 310 309 309 309 309 310 310 309 308 308 306 304 303 302 301 301 302 302 302 302 302 302 302 301 302 302 302 302 302 301 302
309 309 309 313 312 315 312 313 313 314 313 311 310 310 309 309 310 310 308 307 307 308 306 303 302 301 301 301 302 302 302 302 303 303 303 303 302 301 301 302 302 302 302 303
309 309 310 310 311 311 313 313 309 307 309 309 309 309 309 310 309 307 306 308 307 305 303 302 301 301 301 302 303 302 302 303 303 304 304 304 302 301 301 301 302 302 302 301
307 306 308 308 311 311 308 311 312 308 306 309 311 310 308 308 307 306 307 306 303 303 301 301 301 301 301 302 302 302 303 303 305 305 304 304 303 302 301 302 302 302 302 301
307 306 309 306 307 308 307 311 311 307 308 309 310 310 309 306 308 308 307 304 302 300 301 301 301 301 301 301 302 303 304 305 306 305 305 305 304 304 303 303 302 302 302 303
307 304 305 304 309 309 311 310 307 309 310 310 310 310 310 308 308 307 305 303 301 300 300 301 301 301 301 302 303 303 305 306 306 305 306 306 305 306 305 305 306 306 307 309
307 306 305 305 306 307 311 312 312 311 310 310 310 310 308 308 307 305 303 301 300 300 301 301 301 301 302 304 305 304 307 307 306 306 306 306 306 306 307 308 310 311 311 311
307 306 307 308 308 310 311 311 311 311 309 310 310 309 307 307 306 304 302 300 300 301 301 301 300 301 302 304 305 306 307 307 307 307 307 306 308 308 309 312 311 313 312 311
306 307 307 306 309 310 311 311 311 310 309 309 309 308 307 306 305 303 300 300 301 300 301 301 300 301 303 304 305 306 307 307 307 307 307 308 308 309 310 311 312 312 312 313
307 306 306 307 310 309 311 311 310 310 308 309 308 308 307 306 304 302 300 300 301 301 302 301 301 302 303 304 306 307 308 307 307 307 307 309 309 310 310 311 311 312 312 313
Wind_Speed
7 11 5 6 3 3 3 4 3 1 4 3 6 5 8 16 27 26 28 28 26 24 14 7 20 29 27 17 13 11 8 5 3 1 1 0 3 5 4 6 12 14 14 14
7 5 5 6 5 6 6 3 3 3 3 2 6 5 4 11 13 16 17 22 20 18 14 7 5 7 13 13 11 9 9 8 6 6 2 2 7 8 9 15 15 16 17 16
6 5 7 6 7 6 4 4 2 3 4 3 6 2 3 3 14 18 22 21 21 18 15 11 9 8 8 5 6 6 6 8 7 7 3 4 11 14 16 15 15 20 22 20
6 5 7 8 7 3 2 1 2 4 3 3 2 4 3 2 6 10 15 19 20 20 18 15 9 4 4 9 11 12 13 10 10 11 13 14 17 20 23 25 24 23 22 19
3 5 6 9 3 3 3 3 2 2 3 3 4 4 3 2 4 5 9 11 12 12 13 12 11 7 3 1 6 11 15 18 20 24 24 25 27 28 29 31 31 26 21 18
3 1 5 3 2 4 4 2 7 4 3 2 1 4 4 1 2 1 3 6 8 11 12 11 9 7 6 6 5 7 11 13 14 20 25 28 30 35 32 33 32 28 22 20
4 2 1 5 5 6 10 6 4 5 5 4 1 2 2 2 3 1 1 5 6 5 8 10 10 11 10 9 10 12 15 18 18 19 27 31 34 39 38 37 37 30 27 24
1 4 5 7 2 2 4 4 5 4 3 4 6 4 4 1 6 7 6 7 11 13 11 10 13 15 15 16 16 17 18 19 19 22 26 27 27 31 32 32 33 33 30 27
2 2 2 5 5 4 3 5 1 3 2 2 3 1 5 1 8 11 9 10 11 13 16 18 22 26 26 27 28 28 29 27 28 33 39 36 33 33 35 33 31 30 32 32
3 2 2 2 4 10 7 2 4 4 2 5 4 3 4 1 3 4 2 8 16 20 23 27 31 33 33 32 28 26 24 29 34 41 47 36 33 31 32 29 27 28 30 31
3 3 5 2 3 1 4 3 6 3 3 3 4 4 5 4 2 6 14 18 24 26 27 30 35 34 33 30 27 28 31 37 44 57 48 37 41 39 38 35 29 26 27 29
1 4 1 1 4 2 3 3 5 4 5 5 2 8 4 7 2 6 13 23 30 31 33 35 34 35 36 36 37 37 39 45 55 50 43 42 45 49 36 37 38 38 39 37
6 2 3 6 6 4 2 2 4 3 3 5 3 5 5 3 6 9 21 30 32 33 35 34 35 38 43 42 40 39 44 46 50 49 46 44 37 35 32 34 34 34 34 36
6 3 6 6 6 3 3 3 3 4 3 3 6 8 10 7 6 18 26 31 33 35 34 37 39 39 41 39 36 44 48 44 43 36 41 43 40 38 39 32 31 35 38 41
4 4 4 5 6 4 5 7 6 7 7 5 6 5 11 6 9 22 28 33 35 36 37 37 38 40 40 39 44 38 36 41 36 37 34 33 33 35 36 36 36 34 33 33
3 1 2 3 5 4 5 8 8 6 2 4 6 12 3 17 23 20 28 30 34 37 37 39 42 41 40 36 38 38 35 38 38 37 36 38 33 31 31 30 31 33 32 31
2 4 3 4 4 6 6 4 3 0 2 4 6 9 6 14 19 24 30 39 36 35 38 44 42 39 38 38 38 40 38 37 36 34 36 32 28 31 33 32 30 28 29 28
5 5 2 3 3 2 3 1 2 2 7 9 9 4 15 21 28 30 32 31 32 39 43 41 40 37 38 41 38 38 37 35 34 34 33 31 29 28 27 27 27 25 23 24
3 4 2 2 2 6 2 2 1 3 8 5 4 10 22 30 27 24 29 31 39 45 43 46 40 40 42 39 37 37 36 34 33 31 31 29 26 25 25 25 23 23 25 26
5 5 4 3 1 4 4 3 1 7 4 3 10 18 22 21 11 16 39 46 45 41 40 40 41 41 39 38 37 36 35 33 30 28 26 24 23 22 21 22 22 25 25 23
2 2 2 2 3 7 5 5 1 4 7 8 16 24 24 6 21 40 45 50 46 39 39 40 39 40 39 39 34 34 33 30 27 25 23 21 19 18 18 17 14 15 14 13
5 4 3 2 2 6 9 2 5 7 17 20 24 27 25 31 36 39 46 47 41 41 41 40 41 41 38 32 32 32 31 28 25 20 20 18 16 15 15 13 12 11 11 12
1 6 4 8 6 6 9 13 16 17 18 23 26 23 27 31 36 41 45 42 38 38 40 40 40 38 34 30 31 32 27 25 18 16 15 14 13 11 13 14 9 7 8 8
3 5 3 2 4 12 10 13 16 18 19 23 20 23 28 29 36 43 44 39 38 40 40 40 38 36 35 30 27 25 23 21 13 12 11 10 7 12 9 4 7 9 4 4
5 8 4 4 11 15 12 10 11 17 19 19 20 24 28 30 38 40 40 37 38 39 38 37 35 33 33 28 26 24 20 16 12 10 8 6 9 7 10 7 5 3 5 5
10 6 4 5 13 7 13 13 15 19 19 18 21 27 29 32 37 40 37 34 36 37 35 35 34 30 28 27 23 19 20 15 9 7 5 9 7 9 9 7 9 7 10 11
Wind_Direction
27 54 17 309 224 162 106 92 86 170 342 81 47 65 11 18 37 25 33 36 39 41 32 207 221 219 215 200 186 186 178 173 163 101 355 126 23 34 42 10 4 354 347 336
32 62 312 301 49 84 51 93 8 326 338 109 96 96 42 29 34 36 41 48 52 51 54 82 184 181 175 179 184 181 187 197 200 210 224 4 352 350 349 339 340 346 342 340
94 317 354 72 40 59 42 84 352 230 350 21 119 30 43 44 50 53 57 60 62 65 71 75 103 146 169 214 221 229 222 218 225 241 270 353 340 334 328 324 321 328 325 325
78 329 60 56 50 66 71 239 267 242 117 230 37 267 240 112 33 27 38 52 57 63 69 74 69 57 336 288 274 275 270 257 265 271 289 295 314 315 318 321 317 312 311 311
221 18 33 55 2 346 230 349 6 336 109 76 346 74 254 76 36 8 11 39 43 46 49 57 61 67 80 201 284 290 281 277 287 296 289 287 289 301 302 309 309 300 297 291
155 99 53 344 26 43 296 27 36 49 74 45 238 98 293 17 96 334 344 24 34 33 32 33 25 7 346 332 310 278 262 260 276 281 283 287 287 290 292 291 294 291 282 279
353 20 84 35 23 16 42 44 358 5 6 224 69 12 262 328 42 17 89 32 23 24 22 9 12 1 349 331 325 317 301 291 299 305 295 291 286 283 283 283 286 282 272 271
44 322 22 333 56 277 36 110 140 269 233 261 322 239 219 288 39 36 37 33 23 21 15 359 352 343 334 321 315 310 309 310 310 316 314 310 307 300 294 289 285 278 268 271
109 317 3 62 51 102 344 38 207 120 24 21 257 326 306 303 25 11 19 26 9 350 344 336 332 323 314 311 305 303 299 299 303 312 317 311 304 301 300 293 281 269 264 267
185 309 14 313 39 28 98 151 32 11 342 305 278 243 234 170 262 261 347 331 339 340 333 327 321 320 315 314 306 298 290 298 302 307 313 300 289 293 295 289 277 264 260 260
105 97 289 51 46 229 9 30 56 110 143 218 299 252 214 193 0 335 331 339 335 329 324 320 318 317 319 313 306 303 293 295 299 304 307 289 281 278 277 277 273 272 270 269
50 137 293 249 290 309 290 126 119 117 277 228 195 278 144 160 212 294 322 329 333 331 327 325 325 324 322 317 309 303 297 296 300 302 300 290 285 287 272 272 276 277 278 278
185 0 14 352 356 351 211 207 126 103 81 217 154 265 192 243 300 319 323 328 326 325 326 324 322 319 314 311 306 300 298 298 298 299 292 293 291 290 280 276 279 276 274 279
133 131 157 191 217 172 272 241 254 160 136 231 230 284 304 312 315 326 323 322 323 324 319 320 317 313 309 307 302 302 301 304 309 303 297 294 290 286 284 283 274 274 278 282
104 198 185 237 242 211 234 253 236 207 226 184 273 269 288 299 301 316 321 324 318 317 319 315 311 311 309 303 305 307 304 306 309 307 303 302 296 290 285 283 280 282 284 280
11 216 130 282 259 239 252 257 229 247 293 267 294 289 206 318 320 315 318 313 309 311 315 314 312 312 310 309 307 306 310 309 310 307 306 303 298 295 291 284 280 284 281 281
107 129 101 262 358 333 315 276 170 227 236 216 274 279 306 313 312 314 314 313 309 314 314 313 312 311 308 309 311 311 314 313 309 307 306 305 300 286 286 286 286 284 281 277
137 118 141 263 5 282 245 53 122 251 278 266 277 267 297 300 307 313 319 318 313 313 313 313 313 313 310 312 313 313 312 311 310 307 307 309 307 298 294 288 283 282 281 276
146 128 117 134 206 284 196 213 104 134 273 279 211 279 308 314 316 314 324 321 317 314 315 317 323 313 316 316 319 316 315 315 311 309 308 308 306 299 295 284 280 283 284 280
74 71 121 118 158 267 226 250 140 134 293 231 239 284 293 317 320 315 322 324 322 315 317 320 318 314 317 320 321 318 317 314 311 316 311 308 307 303 295 287 286 282 282 280
23 19 173 144 228 284 226 246 180 71 271 303 311 312 312 281 300 310 320 324 324 324 322 324 323 320 321 323 322 318 321 316 318 314 312 310 312 309 303 299 295 287 278 273
179 148 203 95 260 291 192 154 157 243 303 303 305 310 313 315 314 316 322 325 324 325 328 331 325 325 328 328 327 322 321 322 321 310 311 314 315 313 311 312 311 300 291 291
260 185 184 176 218 228 210 247 283 296 310 309 304 310 318 314 315 321 325 327 323 325 326 330 327 327 332 332 333 329 327 324 317 311 314 316 315 314 320 316 319 296 294 310
249 184 207 66 265 249 280 287 291 304 309 315 310 315 322 316 320 324 329 326 326 330 331 333 329 330 333 337 330 333 339 327 321 324 325 324 330 328 337 6 347 330 344 11
205 158 186 262 283 287 293 305 309 313 315 313 318 319 324 323 325 328 331 330 332 332 336 336 335 336 338 339 334 339 340 329 329 330 341 2 336 17 31 19 30 25 42 81
192 186 161 226 274 250 292 315 312 310 316 317 317 321 327 329 330 333 336 334 333 334 341 342 342 341 344 346 348 348 337 342 336 348 17 15 37 46 24 43 41 51 80 91